Home   Weather   Oelde   Past weeks

Flag for Germany Past Weather in Oelde, North Rhine-Westphalia, Germany — Yesterday and Last 2 Weeks

Now
36 °F

Sunny.


Feels Like: 31 °F
Forecast: 35 / 52 °F
Wind: 6 mph from South

Location: Paderborn / Lippstadt

Current Time: Apr 28, 2017 at 6:56:34 am

Latest Report: Apr 28, 2017 at 6:20 am


Visibility: 10 mi

Pressure: 29.92 "Hg

Humidity: 75%

Dew Point: 28 °F

Location of OeldeLocation

Past Weather in Oelde — Graph

°F

Oelde Temperature Yesterday

Maximum temperature yesterday: 50 °F (at 1:50 pm)
Minimum temperature yesterday: 30 °F (at 3:20 am)
Average temperature yesterday: 41 °F

High & Low Weather Summary for the Past Weeks

 TemperatureHumidityPressure
High55 °F (Apr 24, 12:20 pm)100% (Apr 22, 3:50 am)30.60 "Hg (Apr 22, 3:50 am)
Low27 °F (Apr 20, 5:50 am)30% (Apr 27, 3:50 pm)29.62 "Hg (Apr 25, 3:50 am)
Average43 °F64%30.13 "Hg
* Reported Apr 19 8:50 am — Apr 28 5:50 am, Oelde, Weather by CustomWeather, © 2017

Note: Actual official high and low records may vary slightly from our data, if they occured in-between our weather recording intervals... More about our weather records

Advertising

Oelde Weather History for the Previous 24 Hours

Scroll right to see more
 ConditionsComfort  
Time TempWeatherWind HumidityBarometerVisibility
5:50 am
Fri, Apr 28
30 °FPassing clouds.3 mph86%29.92 "HgN/A
5:20 am32 °FPassing clouds.3 mph80%29.95 "HgN/A
4:50 am32 °FClear.2 mph87%29.95 "Hg10 mi
4:20 am34 °FPassing clouds.5 mph81%29.95 "HgN/A
3:20 am34 °FClear.6 mph81%29.95 "Hg10 mi
2:50 am37 °FClear.7 mph70%29.95 "Hg10 mi
2:20 am36 °FClear.7 mph75%29.95 "Hg10 mi
1:50 am36 °FPassing clouds.6 mph75%29.95 "HgN/A
1:20 am36 °FClear.8 mph75%29.95 "Hg10 mi
12:50 am37 °FClear.2 mph70%29.95 "Hg10 mi
12:20 am36 °FClear.6 mph75%29.98 "Hg10 mi
11:50 pm
Thu, Apr 27
39 °FClear.2 mph65%29.98 "Hg10 mi
11:20 pm37 °FClear.5 mph65%29.98 "Hg10 mi
10:50 pm37 °FClear.3 mph65%29.98 "Hg10 mi
10:20 pm41 °FClear.5 mph57%29.98 "Hg10 mi
9:50 pm41 °FClear.2 mph57%29.98 "Hg10 mi
8:50 pm43 °FPassing clouds.3 mph49%29.98 "HgN/A
8:20 pm43 °FPassing clouds.3 mph49%29.95 "HgN/A
7:50 pm48 °FPassing clouds.6 mph37%29.95 "HgN/A
7:20 pm48 °FPassing clouds.7 mph37%29.95 "HgN/A
6:50 pm50 °FPassing clouds.7 mph35%29.95 "HgN/A
6:20 pm50 °FPassing clouds.6 mph35%29.95 "HgN/A
5:50 pm50 °FPassing clouds.7 mph35%29.95 "HgN/A
5:20 pm50 °FPassing clouds.8 mph30%29.95 "HgN/A
4:50 pm50 °FPassing clouds.9 mph32%29.95 "HgN/A
4:20 pm50 °FPassing clouds.12 mph32%29.95 "HgN/A
3:50 pm50 °FPassing clouds.9 mph30%29.95 "HgN/A
3:20 pm50 °FPassing clouds.9 mph32%29.98 "HgN/A
2:20 pm48 °FPassing clouds.10 mph34%29.98 "HgN/A
1:50 pm50 °FPassing clouds.8 mph37%29.98 "HgN/A
12:50 pm46 °FPassing clouds.8 mph53%29.98 "HgN/A
12:20 pm45 °FPassing clouds.5 mph57%29.98 "HgN/A
11:50 am45 °FPassing clouds.7 mph57%29.98 "HgN/A
11:20 am45 °FPassing clouds.6 mph57%29.98 "HgN/A
10:50 am43 °FPassing clouds.5 mph71%29.98 "HgN/A
10:20 am43 °FPassing clouds.5 mph71%29.98 "HgN/A
9:50 am39 °FScattered clouds.5 mph81%29.98 "HgN/A
9:20 am39 °FPassing clouds.5 mph81%29.98 "HgN/A
8:50 am39 °FPassing clouds.5 mph81%29.98 "HgN/A
8:20 am37 °FSunny.6 mph87%29.98 "Hg10 mi
7:50 am36 °FSunny.6 mph87%29.98 "Hg10 mi
7:20 am34 °FSunny.1 mph87%29.98 "Hg10 mi
6:50 am34 °FSunny.5 mph87%29.98 "Hg10 mi
Weather by CustomWeather, © 2017

See weather overviewHow to use our weather pages